Location: Canazei
(46.4667°N, 11.7667°E)
Time: 06:15:53
(UTC+00:00)

Cosmos 923 Rocket - Pass Details

Date: 21 April 2021
Orbit: 759 x 784 km, 74.0° (Epoch: 05 May)

Event Time Altitude Azimuth Distance (km) Brightness Sun altitude
Rises 01:05:13 0° 337° (NNW) 3,231 7.7 -26.3°
Reaches altitude 10° 01:07:35 10° 338° (NNW) 2,304 6.9 -26.1°
Maximum altitude 01:12:50 89° 254° (WSW) 771 3.9 -25.6°
Enters shadow 01:13:15 76° 162° (SSE) 790 3.8 -25.6°
